Weather History for KTQH - January, 2014

Change the Weather History Date:

Saturday, January 25, 2014

  Actual Average (KMKO) Record (KMKO)
Temperature  
Mean Temperature 41 °F -  
Max Temperature 59 °F 47 °F - (-1)
Min Temperature 23 °F 27 °F - (-1)
Degree Days  
Heating Degree Days 24    
Moisture  
Dew Point 23 °F    
Average Humidity 54    
Maximum Humidity 93    
Minimum Humidity 36    
Precipitation  
Precipitation 0.00 in - - ()
Sea Level Pressure  
Sea Level Pressure 30.01 in    
Wind  
Wind Speed 6 mph (WNW)    
Max Wind Speed 16 mph    
Max Gust Speed 25 mph    
Visibility 10 miles    
Events      
Averages and records for this station are not official NWS values.
T = Trace of Precipitation, MM = Missing Value Source: NWS Daily Summary

Daily Weather History Graph

Daily Weather History Graph

Search for Another Location

Airport or City:

Trip Planner

Search our weather history database for the weather conditions in past years. The results will help you decide how hot, cold, wet, or windy it might be!

Date:

Astronomy

Jan. 25, 2014 Rise Set
Actual Time 7:25 AM CST 5:39 PM CST
Civil Twilight 6:57 AM CST 6:07 PM CST
Nautical Twilight 6:27 AM CST 6:38 PM CST
Astronomical Twilight 5:56 AM CST 7:08 PM CST
Moon 1:59 AM CST (1/25) 12:40 PM CST (1/25)
Length of Visible Light 11h 09m
Length of Day
10h 14m
Waning Crescent, 34% of the Moon is Illuminated
Jan 25
Waning Crescent
Jan 30
New
Feb 6
First Quarter
Feb 14
Full
Feb 22
Last Quarter

Hourly Weather History & Observations

Time (CST) Temp. Windchill Dew Point Humidity Pressure Visibility Wind Dir Wind Speed Gust Speed Precip Events Conditions
12:15 AM 32.0 °F 25.6 °F 8.6 °F 38% 30.06 in 10.0 mi SW 6.9 mph - N/A   Clear
12:35 AM 32.0 °F 24.2 °F 8.6 °F 38% 30.05 in 10.0 mi SW 9.2 mph - N/A   Clear
12:55 AM 32.0 °F 24.8 °F 8.6 °F 38% 30.04 in 10.0 mi SW 8.1 mph - N/A   Clear
1:15 AM 32.0 °F 24.8 °F 10.4 °F 41% 30.03 in 10.0 mi SW 8.1 mph - N/A   Clear
1:35 AM 32.0 °F 24.8 °F 10.4 °F 41% 30.03 in 10.0 mi SW 8.1 mph - N/A   Scattered Clouds
1:55 AM 32.0 °F 24.8 °F 10.4 °F 41% 30.02 in 10.0 mi SW 8.1 mph - N/A   Scattered Clouds
2:15 AM 32.0 °F 24.8 °F 10.4 °F 41% 30.01 in 10.0 mi SW 8.1 mph - N/A   Scattered Clouds
2:35 AM 32.0 °F 26.4 °F 10.4 °F 41% 30.01 in 10.0 mi SW 5.8 mph - N/A   Scattered Clouds
2:55 AM 32.0 °F 28.7 °F 10.4 °F 41% 30.00 in 10.0 mi SW 3.5 mph - N/A   Clear
3:15 AM 32.0 °F 26.4 °F 10.4 °F 41% 30.00 in 10.0 mi SW 5.8 mph - N/A   Clear
3:35 AM 32.0 °F 27.5 °F 10.4 °F 41% 29.99 in 10.0 mi SW 4.6 mph - N/A   Clear
3:55 AM 32.0 °F 27.5 °F 10.4 °F 41% 29.99 in 10.0 mi SW 4.6 mph - N/A   Clear
4:15 AM 32.0 °F 28.7 °F 10.4 °F 41% 29.97 in 10.0 mi SW 3.5 mph - N/A   Scattered Clouds
4:35 AM 32.0 °F 28.7 °F 12.2 °F 44% 29.99 in 10.0 mi WSW 3.5 mph - N/A   Scattered Clouds
4:55 AM 30.2 °F - 12.2 °F 47% 29.99 in 10.0 mi Calm Calm - N/A   Clear
5:15 AM 28.4 °F - 12.2 °F 51% 29.99 in 10.0 mi Calm Calm - N/A   Clear
5:35 AM 26.6 °F - 12.2 °F 55% 29.99 in 10.0 mi Calm Calm - N/A   Clear
5:55 AM 26.6 °F - 14.0 °F 59% 30.00 in 10.0 mi Calm Calm - N/A   Clear
6:15 AM 23.0 °F - 15.8 °F 74% 30.00 in 10.0 mi Calm Calm - N/A   Clear
6:35 AM 23.0 °F - 15.8 °F 74% 30.00 in 10.0 mi Calm Calm - N/A   Clear
6:55 AM 23.0 °F - 14.0 °F 68% 30.01 in 10.0 mi Calm Calm - N/A   Clear
7:15 AM 23.0 °F - 14.0 °F 68% 30.02 in 10.0 mi Calm Calm - N/A   Clear
7:35 AM 23.0 °F - 17.6 °F 80% 30.03 in 10.0 mi Calm Calm - N/A   Clear
7:55 AM 23.0 °F - 17.6 °F 80% 30.03 in 10.0 mi Calm Calm - N/A   Clear
8:15 AM 26.6 °F - 19.4 °F 74% 30.03 in 10.0 mi Calm Calm - N/A   Clear
8:35 AM 32.0 °F - 17.6 °F 55% 30.04 in 10.0 mi Calm Calm - N/A   Clear
8:55 AM 33.8 °F - 15.8 °F 48% 30.04 in 10.0 mi Calm Calm - N/A   Clear
9:15 AM 37.4 °F - 17.6 °F 45% 30.04 in 10.0 mi Calm Calm - N/A   Clear
9:35 AM 41.0 °F 36.4 °F 19.4 °F 42% 30.04 in 10.0 mi NW 6.9 mph - N/A   Clear
9:55 AM 42.8 °F 38.6 °F 21.2 °F 42% 30.05 in 10.0 mi NW 6.9 mph - N/A   Clear
10:15 AM 44.6 °F 41.4 °F 23.0 °F 43% 30.05 in 10.0 mi NW 5.8 mph - N/A   Clear
10:35 AM 46.4 °F 44.3 °F 24.8 °F 43% 30.05 in 10.0 mi NNW 4.6 mph - N/A   Clear
10:55 AM 51.8 °F - 28.4 °F 41% 30.05 in 10.0 mi North 8.1 mph - N/A   Clear
11:15 AM 53.6 °F - 30.2 °F 41% 30.05 in 10.0 mi North 8.1 mph - N/A   Clear
11:35 AM 53.6 °F - 32.0 °F 44% 30.05 in 10.0 mi NNW 10.4 mph 17.3 mph N/A   Clear
11:55 AM 55.4 °F - 32.0 °F 41% 30.04 in 10.0 mi NNW 10.4 mph - N/A   Clear
12:15 PM 55.4 °F - 32.0 °F 41% 30.04 in 10.0 mi NNW 9.2 mph - N/A   Clear
12:35 PM 57.2 °F - 32.0 °F 38% 30.03 in 10.0 mi North 15.0 mph - N/A   Clear
12:55 PM 57.2 °F - 32.0 °F 38% 30.02 in 10.0 mi NW 13.8 mph 17.3 mph N/A   Clear
1:15 PM 59.0 °F - 32.0 °F 36% 30.01 in 10.0 mi NNW 12.7 mph - N/A   Clear
1:35 PM 59.0 °F - 32.0 °F 36% 30.01 in 10.0 mi NW 15.0 mph 21.9 mph N/A   Clear
1:55 PM 59.0 °F - 32.0 °F 36% 30.00 in 10.0 mi NNW 11.5 mph 21.9 mph N/A   Clear
2:15 PM 59.0 °F - 32.0 °F 36% 30.00 in 10.0 mi NNW 13.8 mph 25.3 mph N/A   Clear
2:35 PM 59.0 °F - 33.8 °F 39% 30.00 in 10.0 mi NNW 11.5 mph 20.7 mph N/A   Clear
2:55 PM 59.0 °F - 33.8 °F 39% 29.99 in 10.0 mi NNW 12.7 mph 20.7 mph N/A   Clear
3:15 PM 59.0 °F - 32.0 °F 36% 29.99 in 10.0 mi NNW 16.1 mph 21.9 mph N/A   Clear
3:35 PM 59.0 °F - 33.8 °F 39% 29.99 in 10.0 mi NNW 9.2 mph 18.4 mph N/A   Clear
3:55 PM 59.0 °F - 32.0 °F 36% 29.99 in 10.0 mi NNW 16.1 mph 24.2 mph N/A   Clear
4:15 PM 57.2 °F - 33.8 °F 41% 30.00 in 10.0 mi NNW 15.0 mph 20.7 mph N/A   Clear
4:35 PM 57.2 °F - 32.0 °F 38% 30.00 in 10.0 mi NNW 11.5 mph - N/A   Clear
4:55 PM 55.4 °F - 30.2 °F 38% 30.00 in 10.0 mi NW 12.7 mph 19.6 mph N/A   Clear
5:15 PM 53.6 °F - 32.0 °F 44% 30.01 in 10.0 mi NW 8.1 mph 16.1 mph N/A   Clear
5:35 PM 51.8 °F - 30.2 °F 44% 30.01 in 10.0 mi WNW 5.8 mph - N/A   Clear
5:55 PM 48.2 °F - 30.2 °F 50% 30.02 in 10.0 mi NW 3.5 mph - N/A   Clear
6:15 PM 44.6 °F 43.1 °F 30.2 °F 57% 30.02 in 10.0 mi NNW 3.5 mph - N/A   Clear
6:35 PM 41.0 °F - 28.4 °F 61% 30.02 in 10.0 mi Calm Calm - N/A   Clear
6:55 PM 39.2 °F - 28.4 °F 65% 30.02 in 10.0 mi Calm Calm - N/A   Clear
7:15 PM 39.2 °F - 30.2 °F 70% 30.02 in 10.0 mi Calm Calm - N/A   Clear
7:35 PM 35.6 °F - 28.4 °F 75% 30.02 in 10.0 mi Calm Calm - N/A   Clear
7:55 PM 33.8 °F - 26.6 °F 75% 30.01 in 10.0 mi Calm Calm - N/A   Clear
8:15 PM 35.6 °F - 28.4 °F 75% 30.01 in 10.0 mi Calm Calm - N/A   Clear
9:15 PM 32.0 °F - 26.6 °F 80% 30.00 in 10.0 mi Calm Calm - N/A   Clear
9:35 PM 32.0 °F - 28.4 °F 87% 29.99 in 10.0 mi Calm Calm - N/A   Clear
9:55 PM 32.0 °F - 28.4 °F 87% 29.99 in 10.0 mi Calm Calm - N/A   Clear
10:15 PM 30.2 °F - 26.6 °F 86% 29.99 in 10.0 mi Calm Calm - N/A   Clear
10:35 PM 30.2 °F - 28.4 °F 93% 29.98 in 10.0 mi Calm Calm - N/A   Clear
10:55 PM 32.0 °F - 28.4 °F 87% 29.97 in 10.0 mi Calm Calm - N/A   Clear
11:15 PM 32.0 °F - 28.4 °F 87% 29.96 in 10.0 mi Calm Calm - N/A   Clear
11:35 PM 32.0 °F - 30.2 °F 93% 29.95 in 10.0 mi Calm Calm - N/A   Clear
11:55 PM 30.2 °F - 26.6 °F 86% 29.94 in 10.0 mi Calm Calm - N/A   Clear